| time (UTC) | temp F | wind direction | speed MPH | gust MPH | rain 1hr in | rain 24hr in | rain mn in | humidity % | barometer mb |
| 20260508023049 | 45 | 169 | 5.0 | 19.0 | 0.00 | 0.00 | 0.00 | 50 | 1011.5 |
| 20260508021549 | 45 | 152 | 9.0 | 18.0 | 0.00 | 0.00 | 0.00 | 50 | 1011.4 |
| 20260508020103 | 46 | 139 | 9.0 | 24.0 | 0.00 | 0.00 | 0.00 | 50 | 1011.4 |
| 20260508014555 | 46 | 132 | 8.0 | 20.0 | 0.00 | 0.00 | 0.00 | 49 | 1011.4 |
| 20260508013051 | 46 | 148 | 10.0 | 21.0 | 0.00 | 0.00 | 0.00 | 47 | 1011.6 |
| 20260508011546 | 47 | 152 | 13.0 | 18.0 | 0.00 | 0.00 | 0.00 | 45 | 1011.6 |
| 20260508010043 | 47 | 120 | 13.0 | 22.0 | 0.00 | 0.00 | 0.00 | 47 | 1011.6 |
| 20260508004542 | 47 | 150 | 17.0 | 27.0 | 0.00 | 0.00 | 0.00 | 48 | 1011.6 |
| 20260508003044 | 48 | 142 | 15.0 | 26.0 | 0.00 | 0.00 | 0.00 | 47 | 1011.6 |
| 20260508001550 | 48 | 142 | 19.0 | 28.0 | 0.00 | 0.00 | 0.00 | 45 | 1011.5 |
| 20260508000041 | 49 | 105 | 24.0 | 34.0 | 0.00 | 0.00 | 0.00 | 45 | 1011.4 |
| 20260507234540 | 49 | 118 | 15.0 | 31.0 | 0.00 | 0.00 | 0.00 | 47 | 1011.7 |
| 20260507233040 | 49 | 136 | 18.0 | 26.0 | 0.00 | 0.00 | 0.00 | 44 | 1011.8 |
| 20260507231539 | 50 | 123 | 17.0 | 34.0 | 0.00 | 0.00 | 0.00 | 43 | 1011.8 |
| 20260507230038 | 50 | 138 | 17.0 | 27.0 | 0.00 | 0.00 | 0.00 | 46 | 1012.0 |
| 20260507224536 | 49 | 113 | 16.0 | 32.0 | 0.00 | 0.00 | 0.00 | 48 | 1012.3 |
| 20260507223031 | 48 | 129 | 20.0 | 30.0 | 0.00 | 0.00 | 0.00 | 48 | 1012.1 |
| 20260507221531 | 47 | 163 | 14.0 | 25.0 | 0.00 | 0.00 | 0.00 | 51 | 1012.1 |
| 20260507220029 | 48 | 138 | 18.0 | 31.0 | 0.00 | 0.00 | 0.00 | 48 | 1011.9 |
| 20260507214528 | 48 | 46 | 15.0 | 33.0 | 0.00 | 0.00 | 0.00 | 49 | 1011.9 |
| 20260507213035 | 49 | 124 | 18.0 | 32.0 | 0.00 | 0.00 | 0.00 | 47 | 1011.9 |
| 20260507211532 | 47 | 146 | 22.0 | 34.0 | 0.00 | 0.00 | 0.00 | 49 | 1011.9 |
| 20260507210023 | 46 | 138 | 19.0 | 33.0 | 0.00 | 0.00 | 0.00 | 49 | 1012.1 |
| 20260507204521 | 46 | 134 | 21.0 | 30.0 | 0.00 | 0.00 | 0.00 | 51 | 1012.2 |
| 20260507203021 | 46 | 111 | 20.0 | 30.0 | 0.00 | 0.00 | 0.00 | 48 | 1012.3 |
| 20260507201532 | 47 | 167 | 18.0 | 31.0 | 0.00 | 0.00 | 0.00 | 49 | 1012.3 |
| 20260507200022 | 47 | 135 | 14.0 | 30.0 | 0.00 | 0.00 | 0.00 | 48 | 1012.2 |
| 20260507194516 | 47 | 150 | 13.0 | 24.0 | 0.00 | 0.00 | 0.00 | 50 | 1012.4 |
| 20260507193017 | 46 | 155 | 13.0 | 30.0 | 0.00 | 0.00 | 0.00 | 51 | 1012.4 |
| 20260507191521 | 47 | 132 | 11.0 | 25.0 | 0.00 | 0.00 | 0.00 | 51 | 1012.5 |
| 20260507190016 | 47 | 156 | 15.0 | 27.0 | 0.00 | 0.00 | 0.00 | 49 | 1012.5 |
| 20260507184511 | 46 | 167 | 11.0 | 22.0 | 0.00 | 0.00 | 0.00 | 49 | 1012.6 |
| 20260507183010 | 46 | 138 | 16.0 | 25.0 | 0.00 | 0.00 | 0.00 | 54 | 1012.4 |
| 20260507181505 | 46 | 156 | 11.0 | 29.0 | 0.00 | 0.00 | 0.00 | 54 | 1012.7 |
| 20260507180004 | 45 | 155 | 16.0 | 25.0 | 0.00 | 0.00 | 0.00 | 55 | 1012.8 |
| 20260507174604 | 44 | 193 | 12.0 | 19.0 | 0.00 | 0.00 | 0.00 | 58 | 1012.9 |
| 20260507173103 | 44 | 132 | 14.0 | 24.0 | 0.00 | 0.00 | 0.00 | 57 | 1012.8 |
| 20260507171556 | 43 | 159 | 11.0 | 19.0 | 0.00 | 0.00 | 0.00 | 60 | 1012.8 |
| 20260507170056 | 42 | 132 | 16.0 | 22.0 | 0.00 | 0.00 | 0.00 | 62 | 1012.7 |
| 20260507164549 | 42 | 155 | 18.0 | 25.0 | 0.00 | 0.00 | 0.00 | 63 | 1012.8 |
| 20260507163046 | 41 | 117 | 17.0 | 25.0 | 0.00 | 0.00 | 0.00 | 65 | 1012.7 |
| 20260507161549 | 40 | 165 | 12.0 | 21.0 | 0.00 | 0.00 | 0.00 | 67 | 1012.8 |
| 20260507160040 | 40 | 142 | 12.0 | 25.0 | 0.00 | 0.00 | 0.00 | 68 | 1012.8 |
| 20260507154536 | 39 | 182 | 10.0 | 20.0 | 0.00 | 0.00 | 0.00 | 69 | 1012.8 |
| 20260507153031 | 39 | 140 | 7.0 | 15.0 | 0.00 | 0.00 | 0.00 | 70 | 1012.9 |
| 20260507151528 | 38 | 161 | 7.0 | 13.0 | 0.00 | 0.00 | 0.00 | 71 | 1012.8 |
| 20260507150026 | 38 | 151 | 8.0 | 15.0 | 0.00 | 0.00 | 0.00 | 72 | 1012.8 |
| 20260507144524 | 38 | 170 | 6.0 | 12.0 | 0.00 | 0.00 | 0.00 | 73 | 1012.8 |
| 20260507143022 | 38 | 196 | 6.0 | 14.0 | 0.00 | 0.00 | 0.00 | 73 | 1012.8 |
| 20260507141522 | 38 | 175 | 6.0 | 13.0 | 0.00 | 0.00 | 0.00 | 73 | 1012.8 |
| 20260507140019 | 37 | 191 | 8.0 | 15.0 | 0.00 | 0.00 | 0.00 | 73 | 1012.9 |
| 20260507134517 | 37 | 161 | 8.0 | 16.0 | 0.00 | 0.00 | 0.00 | 73 | 1012.9 |
| 20260507133015 | 37 | 186 | 8.0 | 16.0 | 0.00 | 0.00 | 0.00 | 74 | 1013.0 |
| 20260507131513 | 37 | 181 | 9.0 | 18.0 | 0.00 | 0.00 | 0.00 | 73 | 1012.8 |
| 20260507130012 | 37 | 141 | 10.0 | 19.0 | 0.00 | 0.00 | 0.00 | 73 | 1012.8 |
| 20260507124513 | 37 | 138 | 15.0 | 24.0 | 0.00 | 0.00 | 0.00 | 72 | 1012.6 |
| 20260507123015 | 38 | 164 | 6.0 | 18.0 | 0.00 | 0.00 | 0.00 | 72 | 1012.7 |
| 20260507121510 | 38 | 144 | 9.0 | 19.0 | 0.00 | 0.00 | 0.00 | 72 | 1012.8 |
| 20260507120009 | 38 | 132 | 8.0 | 17.0 | 0.00 | 0.00 | 0.00 | 74 | 1012.8 |
| 20260507114508 | 37 | 138 | 8.0 | 14.0 | 0.00 | 0.00 | 0.00 | 74 | 1012.8 |
| 20260507113007 | 37 | 139 | 11.0 | 24.0 | 0.00 | 0.00 | 0.00 | 75 | 1012.8 |
| 20260507111507 | 37 | 157 | 15.0 | 23.0 | 0.00 | 0.00 | 0.00 | 75 | 1012.7 |
| 20260507110005 | 37 | 159 | 15.0 | 22.0 | 0.00 | 0.00 | 0.00 | 75 | 1012.7 |
| 20260507104503 | 37 | 133 | 12.0 | 23.0 | 0.00 | 0.00 | 0.00 | 76 | 1012.6 |
| 20260507103130 | 37 | 137 | 14.0 | 23.0 | 0.00 | 0.00 | 0.00 | 76 | 1012.6 |
| 20260507101558 | 37 | 129 | 14.0 | 22.0 | 0.00 | 0.00 | 0.00 | 75 | 1012.6 |
| 20260507100108 | 37 | 146 | 13.0 | 22.0 | 0.00 | 0.00 | 0.00 | 74 | 1012.4 |
| 20260507094553 | 37 | 150 | 14.0 | 23.0 | 0.00 | 0.00 | 0.00 | 74 | 1012.4 |
| 20260507093051 | 38 | 136 | 14.0 | 20.0 | 0.00 | 0.00 | 0.00 | 73 | 1012.2 |
| 20260507091548 | 38 | 134 | 11.0 | 17.0 | 0.00 | 0.00 | 0.00 | 73 | 1012.2 |
| 20260507090055 | 38 | 103 | 13.0 | 21.0 | 0.00 | 0.00 | 0.00 | 73 | 1012.1 |
| 20260507084549 | 38 | 153 | 16.0 | 23.0 | 0.00 | 0.00 | 0.00 | 73 | 1011.9 |
| 20260507083045 | 38 | 113 | 16.0 | 27.0 | 0.00 | 0.00 | 0.00 | 74 | 1011.8 |
| 20260507081541 | 38 | 128 | 21.0 | 28.0 | 0.00 | 0.00 | 0.00 | 74 | 1011.7 |
| 20260507080042 | 38 | 117 | 16.0 | 26.0 | 0.00 | 0.00 | 0.00 | 75 | 1011.6 |
| 20260507074535 | 38 | 106 | 18.0 | 27.0 | 0.00 | 0.00 | 0.00 | 75 | 1011.5 |
| 20260507073039 | 38 | 140 | 18.0 | 27.0 | 0.00 | 0.00 | 0.00 | 75 | 1011.4 |
| 20260507071533 | 38 | 157 | 18.0 | 31.0 | 0.00 | 0.00 | 0.00 | 74 | 1011.3 |
| 20260507070046 | 38 | 133 | 19.0 | 27.0 | 0.00 | 0.00 | 0.00 | 74 | 1011.1 |
| 20260507064530 | 38 | 92 | 18.0 | 30.0 | 0.00 | 0.00 | 0.00 | 75 | 1011.0 |
| 20260507063029 | 39 | 135 | 16.0 | 27.0 | 0.00 | 0.00 | 0.00 | 74 | 1010.9 |
| 20260507061528 | 39 | 127 | 20.0 | 27.0 | 0.00 | 0.00 | 0.00 | 73 | 1010.7 |
| 20260507060028 | 39 | 132 | 17.0 | 26.0 | 0.00 | 0.00 | 0.00 | 70 | 1010.6 |
| 20260507054526 | 40 | 115 | 18.0 | 32.0 | 0.00 | 0.00 | 0.00 | 68 | 1010.6 |
| 20260507053026 | 40 | 159 | 21.0 | 28.0 | 0.00 | 0.00 | 0.00 | 67 | 1010.5 |
| 20260507051525 | 41 | 127 | 15.0 | 28.0 | 0.00 | 0.00 | 0.00 | 66 | 1010.4 |
| 20260507050038 | 41 | 132 | 17.0 | 30.0 | 0.00 | 0.00 | 0.00 | 65 | 1010.4 |
| 20260507044523 | 42 | 84 | 18.0 | 29.0 | 0.00 | 0.00 | 0.00 | 63 | 1010.2 |
| 20260507043021 | 42 | 78 | 18.0 | 31.0 | 0.00 | 0.00 | 0.00 | 64 | 1010.0 |
| 20260507041519 | 42 | 94 | 18.0 | 35.0 | 0.00 | 0.00 | 0.00 | 62 | 1009.8 |
| 20260507040018 | 43 | 167 | 20.0 | 28.0 | 0.00 | 0.00 | 0.00 | 60 | 1009.9 |
| 20260507034520 | 43 | 144 | 20.0 | 35.0 | 0.00 | 0.00 | 0.00 | 60 | 1009.6 |
| 20260507033017 | 43 | 111 | 13.0 | 30.0 | 0.00 | 0.00 | 0.00 | 61 | 1009.5 |
| 20260507031514 | 43 | 146 | 17.0 | 31.0 | 0.00 | 0.00 | 0.00 | 62 | 1009.3 |
| 20260507030016 | 44 | 173 | 21.0 | 32.0 | 0.00 | 0.00 | 0.00 | 60 | 1009.1 |
| 20260507024511 | 44 | 117 | 21.0 | 35.0 | 0.00 | 0.00 | 0.00 | 59 | 1009.0 |